Time,TemperatureF,DewpointF,PressureIn,WindDirection,WindDirectionDegrees,WindSpeedMPH,WindSpeedGustMPH,Humidity,HourlyPrecipIn,Conditions,Clouds,dailyrainin,SolarRadiationWatts/m^2,SoftwareType,DateUTC
2013-08-01 00:05:00,66.5,61.5,30.09,NNW,329,1.0,3.0,84,0.00,,,0.00,0,Wunderground v.1.15,2013-08-01 05:05:00,
2013-08-01 00:15:00,66.8,61.5,30.10,North,351,2.0,4.0,83,0.00,,,0.00,0,Wunderground v.1.15,2013-08-01 05:15:00,
2013-08-01 00:25:00,66.7,61.4,30.10,NNW,333,2.0,2.0,83,0.00,,,0.00,0,Wunderground v.1.15,2013-08-01 05:25:00,
2013-08-01 00:35:00,67.0,61.3,30.10,NNW,339,2.0,4.0,82,0.00,,,0.00,0,Wunderground v.1.15,2013-08-01 05:35:00,
2013-08-01 00:40:00,66.8,61.1,30.10,NNW,339,1.0,1.0,82,0.00,,,0.00,0,Wunderground v.1.15,2013-08-01 05:40:00,
2013-08-01 00:45:00,66.4,60.7,30.10,NNW,339,1.0,4.0,82,0.00,,,0.00,0,Wunderground v.1.15,2013-08-01 05:45:00,
2013-08-01 00:50:00,65.9,60.9,30.10,NNW,336,0.0,4.0,84,0.00,,,0.00,0,Wunderground v.1.15,2013-08-01 05:50:00,
2013-08-01 00:55:00,65.4,60.8,30.09,NNW,336,0.0,4.0,85,0.00,,,0.00,0,Wunderground v.1.15,2013-08-01 05:55:00,
2013-08-01 01:05:00,64.6,60.3,30.09,NNW,336,1.0,3.0,86,0.00,,,0.00,0,Wunderground v.1.15,2013-08-01 06:05:00,
2013-08-01 01:15:00,64.7,60.7,30.09,NNW,336,0.0,3.0,87,0.00,,,0.00,0,Wunderground v.1.15,2013-08-01 06:15:00,
2013-08-01 01:25:00,64.8,60.5,30.09,NNW,336,0.0,2.0,86,0.00,,,0.00,0,Wunderground v.1.15,2013-08-01 06:25:00,
2013-08-01 01:35:00,64.5,60.2,30.08,NNW,336,1.0,2.0,86,0.00,,,0.00,0,Wunderground v.1.15,2013-08-01 06:35:00,
2013-08-01 01:45:00,64.3,60.3,30.08,NNW,336,0.0,3.0,87,0.00,,,0.00,0,Wunderground v.1.15,2013-08-01 06:45:00,
2013-08-01 01:55:00,64.1,60.2,30.08,NNW,336,0.0,3.0,87,0.00,,,0.00,0,Wunderground v.1.15,2013-08-01 06:55:00,
2013-08-01 02:05:00,64.1,60.2,30.07,NNW,336,0.0,3.0,87,0.00,,,0.00,0,Wunderground v.1.15,2013-08-01 07:05:00,
2013-08-01 02:15:00,64.6,60.3,30.07,NNW,336,0.0,0.0,86,0.00,,,0.00,0,Wunderground v.1.15,2013-08-01 07:15:00,
2013-08-01 02:25:00,64.9,59.9,30.07,NNW,336,0.0,0.0,84,0.00,,,0.00,0,Wunderground v.1.15,2013-08-01 07:25:00,
2013-08-01 02:35:00,64.8,60.2,30.07,NNW,336,0.0,0.0,85,0.00,,,0.00,0,Wunderground v.1.15,2013-08-01 07:35:00,
2013-08-01 02:45:00,64.3,60.0,30.07,NNW,336,0.0,2.0,86,0.00,,,0.00,0,Wunderground v.1.15,2013-08-01 07:45:00,
2013-08-01 02:55:00,63.7,59.8,30.08,NNW,333,0.0,2.0,87,0.00,,,0.00,0,Wunderground v.1.15,2013-08-01 07:55:00,
2013-08-01 03:05:00,63.6,59.7,30.07,NNW,333,0.0,2.0,87,0.00,,,0.00,0,Wunderground v.1.15,2013-08-01 08:05:00,
2013-08-01 03:15:00,63.2,59.6,30.07,NNW,331,1.0,3.0,88,0.00,,,0.00,0,Wunderground v.1.15,2013-08-01 08:15:00,
2013-08-01 03:25:00,63.0,59.7,30.07,NW,325,1.0,3.0,89,0.00,,,0.00,0,Wunderground v.1.15,2013-08-01 08:25:00,
2013-08-01 03:35:00,63.1,59.8,30.07,WNW,300,2.0,3.0,89,0.00,,,0.00,0,Wunderground v.1.15,2013-08-01 08:35:00,
2013-08-01 03:45:00,62.8,59.5,30.07,WNW,295,1.0,3.0,89,0.00,,,0.00,0,Wunderground v.1.15,2013-08-01 08:45:00,
2013-08-01 03:50:00,62.6,59.3,30.07,WNW,295,0.0,3.0,89,0.00,,,0.00,0,Wunderground v.1.15,2013-08-01 08:50:00,
2013-08-01 04:00:00,62.4,59.1,30.07,WNW,295,0.0,1.0,89,0.00,,,0.00,0,Wunderground v.1.15,2013-08-01 09:00:00,
2013-08-01 04:09:00,62.1,59.1,30.07,WNW,295,0.0,0.0,90,0.00,,,0.00,0,Wunderground v.1.15,2013-08-01 09:09:00,
2013-08-01 04:15:00,62.0,59.0,30.07,WNW,295,0.0,0.0,90,0.00,,,0.00,0,Wunderground v.1.15,2013-08-01 09:15:00,
2013-08-01 04:25:00,61.8,58.8,30.08,NW,312,0.0,1.0,90,0.00,,,0.00,0,Wunderground v.1.15,2013-08-01 09:25:00,
2013-08-01 04:35:00,61.6,58.6,30.08,NW,316,0.0,2.0,90,0.00,,,0.00,0,Wunderground v.1.15,2013-08-01 09:35:00,
2013-08-01 04:45:00,61.3,58.7,30.08,NNW,342,1.0,2.0,91,0.00,,,0.00,0,Wunderground v.1.15,2013-08-01 09:45:00,
2013-08-01 04:55:00,60.6,58.0,30.08,North,355,0.0,5.0,91,0.00,,,0.00,0,Wunderground v.1.15,2013-08-01 09:55:00,
2013-08-01 05:05:00,60.5,58.2,30.08,North,355,0.0,5.0,92,0.00,,,0.00,0,Wunderground v.1.15,2013-08-01 10:05:00,
2013-08-01 05:20:00,61.2,58.9,30.09,North,355,0.0,2.0,92,0.00,,,0.00,0,Wunderground v.1.15,2013-08-01 10:20:00,
2013-08-01 05:25:00,61.8,59.1,30.09,North,355,0.0,2.0,91,0.00,,,0.00,0,Wunderground v.1.15,2013-08-01 10:25:00,
2013-08-01 05:35:00,61.8,58.8,30.09,North,355,0.0,0.0,90,0.00,,,0.00,0,Wunderground v.1.15,2013-08-01 10:35:00,
2013-08-01 05:45:00,61.5,58.8,30.09,North,355,0.0,1.0,91,0.00,,,0.00,0,Wunderground v.1.15,2013-08-01 10:45:00,
2013-08-01 06:05:00,61.3,58.7,30.09,North,355,0.0,2.0,91,0.00,,,0.00,0,Wunderground v.1.15,2013-08-01 11:05:00,
2013-08-01 06:15:00,61.0,58.4,30.09,North,355,0.0,2.0,91,0.00,,,0.00,0,Wunderground v.1.15,2013-08-01 11:15:00,
2013-08-01 06:25:00,60.8,58.5,30.09,North,355,0.0,1.0,92,0.00,,,0.00,9,Wunderground v.1.15,2013-08-01 11:25:00,
2013-08-01 06:35:00,60.9,58.6,30.09,NW,321,1.0,2.0,92,0.00,,,0.00,14,Wunderground v.1.15,2013-08-01 11:35:00,
2013-08-01 06:40:00,60.9,58.3,30.09,NW,310,2.0,3.0,91,0.00,,,0.00,16,Wunderground v.1.15,2013-08-01 11:40:00,
2013-08-01 06:45:00,60.8,58.2,30.09,WNW,294,2.0,4.0,91,0.00,,,0.00,18,Wunderground v.1.15,2013-08-01 11:45:00,
2013-08-01 06:55:00,60.9,58.6,30.09,WNW,289,1.0,3.0,92,0.00,,,0.00,23,Wunderground v.1.15,2013-08-01 11:55:00,
2013-08-01 07:09:00,61.4,59.1,30.10,WNW,290,0.0,3.0,92,0.00,,,0.00,28,Wunderground v.1.15,2013-08-01 12:09:00,
2013-08-01 07:15:00,61.8,59.1,30.09,WNW,290,0.0,3.0,91,0.00,,,0.00,33,Wunderground v.1.15,2013-08-01 12:15:00,
2013-08-01 07:25:00,62.4,59.7,30.09,WNW,290,0.0,1.0,91,0.00,,,0.00,35,Wunderground v.1.15,2013-08-01 12:25:00,
2013-08-01 07:35:00,63.0,60.0,30.10,WNW,290,0.0,1.0,90,0.00,,,0.00,37,Wunderground v.1.15,2013-08-01 12:35:00,
2013-08-01 07:40:00,63.5,60.2,30.10,WNW,290,0.0,1.0,89,0.00,,,0.00,37,Wunderground v.1.15,2013-08-01 12:40:00,
2013-08-01 07:45:00,64.0,60.4,30.09,WNW,290,0.0,2.0,88,0.00,,,0.00,39,Wunderground v.1.15,2013-08-01 12:45:00,
2013-08-01 08:00:00,66.2,61.6,30.09,SSW,213,1.0,3.0,85,0.00,,,0.00,155,Wunderground v.1.15,2013-08-01 13:00:00,
2013-08-01 08:05:00,66.9,61.9,30.09,SSW,205,2.0,4.0,84,0.00,,,0.00,239,Wunderground v.1.15,2013-08-01 13:05:00,
2013-08-01 08:10:00,66.9,61.9,30.09,SSW,213,3.0,3.0,84,0.00,,,0.00,260,Wunderground v.1.15,2013-08-01 13:10:00,
2013-08-01 08:20:00,66.4,61.8,30.09,SSW,212,2.0,2.0,85,0.00,,,0.00,283,Wunderground v.1.15,2013-08-01 13:20:00,
2013-08-01 08:25:00,66.9,61.9,30.09,SW,226,1.0,4.0,84,0.00,,,0.00,302,Wunderground v.1.15,2013-08-01 13:25:00,
2013-08-01 08:35:00,67.8,62.1,30.09,SW,230,0.0,4.0,82,0.00,,,0.00,332,Wunderground v.1.15,2013-08-01 13:35:00,
2013-08-01 08:45:00,68.7,62.3,30.09,SW,235,0.0,3.0,80,0.00,,,0.00,360,Wunderground v.1.15,2013-08-01 13:45:00,
2013-08-01 08:55:00,69.6,62.8,30.09,SW,236,1.0,3.0,79,0.00,,,0.00,390,Wunderground v.1.15,2013-08-01 13:55:00,
2013-08-01 09:05:00,70.2,62.6,30.09,WSW,239,1.0,4.0,77,0.00,,,0.00,420,Wunderground v.1.15,2013-08-01 14:05:00,
2013-08-01 09:10:00,70.7,63.1,30.09,WSW,239,1.0,4.0,77,0.00,,,0.00,432,Wunderground v.1.15,2013-08-01 14:10:00,
2013-08-01 09:15:00,71.7,64.1,30.09,SW,227,1.0,4.0,77,0.00,,,0.00,448,Wunderground v.1.15,2013-08-01 14:15:00,
2013-08-01 09:30:00,72.8,63.6,30.09,WSW,240,4.0,6.0,73,0.00,,,0.00,506,Wunderground v.1.15,2013-08-01 14:30:00,
2013-08-01 09:35:00,73.3,62.9,30.08,SSE,168,3.0,6.0,70,0.00,,,0.00,554,Wunderground v.1.15,2013-08-01 14:35:00,
2013-08-01 09:45:00,74.5,64.1,30.08,WSW,238,2.0,6.0,70,0.00,,,0.00,585,Wunderground v.1.15,2013-08-01 14:45:00,
2013-08-01 10:10:00,76.6,63.5,30.07,SSE,158,4.0,4.0,64,0.00,,,0.00,601,Wunderground v.1.15,2013-08-01 15:10:00,
2013-08-01 10:19:00,77.0,63.4,30.07,SW,215,5.0,8.0,63,0.00,,,0.00,624,Wunderground v.1.15,2013-08-01 15:19:00,
2013-08-01 10:25:00,77.4,63.8,30.07,South,188,5.0,9.0,63,0.00,,,0.00,638,Wunderground v.1.15,2013-08-01 15:25:00,
2013-08-01 10:35:00,78.2,65.0,30.07,SW,224,5.0,8.0,64,0.00,,,0.00,656,Wunderground v.1.15,2013-08-01 15:35:00,
2013-08-01 10:45:00,78.9,65.7,30.07,SSW,209,5.0,7.0,64,0.00,,,0.00,673,Wunderground v.1.15,2013-08-01 15:45:00,
2013-08-01 10:55:00,79.8,65.6,30.07,West,267,5.0,11.0,62,0.00,,,0.00,694,Wunderground v.1.15,2013-08-01 15:55:00,
2013-08-01 11:05:00,80.8,65.6,30.07,West,263,7.0,12.0,60,0.00,,,0.00,717,Wunderground v.1.15,2013-08-01 16:05:00,
2013-08-01 11:25:00,81.7,66.0,30.07,SSW,203,6.0,9.0,59,0.00,,,0.00,740,Wunderground v.1.15,2013-08-01 16:25:00,
2013-08-01 11:45:00,82.6,67.3,30.07,West,261,8.0,11.0,60,0.00,,,0.00,780,Wunderground v.1.15,2013-08-01 16:45:00,
2013-08-01 11:55:00,82.1,67.3,30.06,WSW,238,8.0,16.0,61,0.00,,,0.00,791,Wunderground v.1.15,2013-08-01 16:55:00,
2013-08-01 12:05:00,83.0,68.2,30.06,WSW,256,10.0,16.0,61,0.00,,,0.00,814,Wunderground v.1.15,2013-08-01 17:05:00,
2013-08-01 12:15:00,82.9,66.6,30.06,SW,227,10.0,10.0,58,0.00,,,0.00,819,Wunderground v.1.15,2013-08-01 17:15:00,
2013-08-01 12:25:00,83.2,65.9,30.05,WSW,242,8.0,13.0,56,0.00,,,0.00,835,Wunderground v.1.15,2013-08-01 17:25:00,
2013-08-01 12:30:00,83.2,65.9,30.05,SW,225,8.0,8.0,56,0.00,,,0.00,840,Wunderground v.1.15,2013-08-01 17:30:00,
2013-08-01 12:45:00,84.2,67.8,30.05,SW,234,7.0,8.0,58,0.00,,,0.00,835,Wunderground v.1.15,2013-08-01 17:45:00,
2013-08-01 12:59:00,84.6,62.7,30.03,WSW,254,9.0,9.0,48,0.00,,,0.00,853,Wunderground v.1.15,2013-08-01 17:59:00,
2013-08-01 13:05:00,84.8,64.7,30.03,SSW,197,8.0,15.0,51,0.00,,,0.00,851,Wunderground v.1.15,2013-08-01 18:05:00,
2013-08-01 13:15:00,85.5,63.0,30.03,SW,234,7.0,10.0,47,0.00,,,0.00,853,Wunderground v.1.15,2013-08-01 18:15:00,
2013-08-01 13:25:00,85.8,64.4,30.02,SSW,207,6.0,12.0,49,0.00,,,0.00,856,Wunderground v.1.15,2013-08-01 18:25:00,
2013-08-01 13:35:00,85.7,63.1,30.02,SSW,202,7.0,14.0,47,0.00,,,0.00,860,Wunderground v.1.15,2013-08-01 18:35:00,
2013-08-01 13:45:00,85.6,62.4,30.01,SSW,211,7.0,14.0,46,0.00,,,0.00,849,Wunderground v.1.15,2013-08-01 18:45:00,
2013-08-01 13:55:00,86.5,61.3,30.01,West,261,7.0,14.0,43,0.00,,,0.00,851,Wunderground v.1.15,2013-08-01 18:55:00,
2013-08-01 14:10:00,87.4,62.8,30.00,SSW,198,7.0,7.0,44,0.00,,,0.00,844,Wunderground v.1.15,2013-08-01 19:10:00,
2013-08-01 14:35:00,87.6,62.3,29.98,SSW,210,7.0,9.0,43,0.00,,,0.00,816,Wunderground v.1.15,2013-08-01 19:35:00,
2013-08-01 14:40:00,88.0,62.7,29.98,SW,232,7.0,14.0,43,0.00,,,0.00,817,Wunderground v.1.15,2013-08-01 19:40:00,
2013-08-01 14:45:00,87.6,64.3,29.98,West,281,6.0,14.0,46,0.00,,,0.00,812,Wunderground v.1.15,2013-08-01 19:45:00,
2013-08-01 14:55:00,88.4,61.7,29.97,West,259,8.0,13.0,41,0.00,,,0.00,800,Wunderground v.1.15,2013-08-01 19:55:00,
2013-08-01 15:05:00,88.2,62.2,29.96,SSW,211,6.0,13.0,42,0.00,,,0.00,784,Wunderground v.1.15,2013-08-01 20:05:00,
2013-08-01 15:19:00,88.2,62.2,29.96,SSW,207,7.0,7.0,42,0.00,,,0.00,779,Wunderground v.1.15,2013-08-01 20:19:00,
2013-08-01 15:25:00,88.2,61.5,29.96,SW,223,8.0,12.0,41,0.00,,,0.00,772,Wunderground v.1.15,2013-08-01 20:25:00,
2013-08-01 15:35:00,88.1,64.1,29.96,SW,223,7.0,9.0,45,0.00,,,0.00,793,Wunderground v.1.15,2013-08-01 20:35:00,
2013-08-01 15:45:00,88.2,62.2,29.96,WSW,240,6.0,7.0,42,0.00,,,0.00,707,Wunderground v.1.15,2013-08-01 20:45:00,
2013-08-01 15:55:00,87.8,61.9,29.96,WSW,258,8.0,8.0,42,0.00,,,0.00,515,Wunderground v.1.15,2013-08-01 20:55:00,
2013-08-01 16:00:00,87.5,61.6,29.97,SW,229,8.0,16.0,42,0.00,,,0.00,457,Wunderground v.1.15,2013-08-01 21:00:00,
2013-08-01 16:05:00,87.0,61.8,29.96,SSW,198,7.0,16.0,43,0.00,,,0.00,322,Wunderground v.1.15,2013-08-01 21:05:00,
2013-08-01 16:15:00,86.6,62.7,29.98,West,266,8.0,14.0,45,0.00,,,0.00,281,Wunderground v.1.15,2013-08-01 21:15:00,
2013-08-01 16:25:00,85.7,63.1,29.98,SW,232,10.0,15.0,47,0.00,,,0.00,234,Wunderground v.1.15,2013-08-01 21:25:00,
2013-08-01 16:30:00,85.4,63.5,29.98,WSW,238,9.0,9.0,48,0.00,,,0.00,216,Wunderground v.1.15,2013-08-01 21:30:00,
2013-08-01 16:35:00,85.0,63.1,29.98,SSW,206,9.0,15.0,48,0.00,,,0.00,202,Wunderground v.1.15,2013-08-01 21:35:00,
2013-08-01 16:45:00,84.5,64.4,29.97,SSW,203,7.0,13.0,51,0.00,,,0.00,185,Wunderground v.1.15,2013-08-01 21:45:00,
2013-08-01 16:55:00,84.0,64.5,29.96,SSW,210,7.0,13.0,52,0.00,,,0.00,216,Wunderground v.1.15,2013-08-01 21:55:00,
2013-08-01 17:05:00,83.7,65.3,29.96,SW,226,8.0,13.0,54,0.00,,,0.00,183,Wunderground v.1.15,2013-08-01 22:05:00,
2013-08-01 17:15:00,83.4,65.5,29.97,SW,236,6.0,9.0,55,0.00,,,0.00,167,Wunderground v.1.15,2013-08-01 22:15:00,
2013-08-01 17:20:00,83.3,66.0,29.97,SW,220,6.0,10.0,56,0.00,,,0.00,167,Wunderground v.1.15,2013-08-01 22:20:00,
2013-08-01 17:25:00,83.1,65.8,29.97,WSW,237,7.0,13.0,56,0.00,,,0.00,169,Wunderground v.1.15,2013-08-01 22:25:00,
2013-08-01 17:35:00,82.8,65.5,29.97,WSW,241,7.0,13.0,56,0.00,,,0.00,151,Wunderground v.1.15,2013-08-01 22:35:00,
2013-08-01 17:45:00,82.6,65.8,29.96,SW,236,7.0,13.0,57,0.00,,,0.00,172,Wunderground v.1.15,2013-08-01 22:45:00,
2013-08-01 17:55:00,82.3,65.5,29.96,SSW,208,7.0,12.0,57,0.00,,,0.00,149,Wunderground v.1.15,2013-08-01 22:55:00,
2013-08-01 18:05:00,81.9,66.2,29.97,SSW,202,6.0,12.0,59,0.00,,,0.00,102,Wunderground v.1.15,2013-08-01 23:05:00,
2013-08-01 18:15:00,81.5,66.3,29.95,SW,221,5.0,11.0,60,0.00,,,0.00,95,Wunderground v.1.15,2013-08-01 23:15:00,
2013-08-01 18:25:00,81.2,66.0,29.94,SW,222,7.0,10.0,60,0.00,,,0.00,102,Wunderground v.1.15,2013-08-01 23:25:00,
2013-08-01 18:35:00,80.8,66.1,29.93,SSW,205,6.0,10.0,61,0.00,,,0.00,125,Wunderground v.1.15,2013-08-01 23:35:00,
2013-08-01 18:49:00,80.5,66.7,29.93,SW,229,6.0,12.0,63,0.00,,,0.00,121,Wunderground v.1.15,2013-08-01 23:49:00,
2013-08-01 18:55:00,80.3,67.0,29.94,SW,221,7.0,12.0,64,0.00,,,0.00,109,Wunderground v.1.15,2013-08-01 23:55:00,
2013-08-01 19:05:00,79.9,66.6,29.93,SW,231,9.0,15.0,64,0.00,,,0.00,84,Wunderground v.1.15,2013-08-02 00:05:00,
2013-08-01 19:15:00,79.7,65.1,29.93,West,259,8.0,10.0,61,0.00,,,0.00,88,Wunderground v.1.15,2013-08-02 00:15:00,
2013-08-01 19:25:00,79.3,64.2,29.92,SW,227,9.0,16.0,60,0.00,,,0.00,74,Wunderground v.1.15,2013-08-02 00:25:00,
2013-08-01 19:35:00,78.7,64.1,29.92,WSW,240,7.0,16.0,61,0.00,,,0.00,56,Wunderground v.1.15,2013-08-02 00:35:00,
2013-08-01 19:45:00,78.3,64.2,29.91,WSW,247,6.0,16.0,62,0.00,,,0.00,60,Wunderground v.1.15,2013-08-02 00:45:00,
2013-08-01 19:55:00,77.7,64.1,29.91,SSW,205,4.0,8.0,63,0.00,,,0.00,49,Wunderground v.1.15,2013-08-02 00:55:00,
2013-08-01 20:05:00,77.5,64.4,29.91,SW,231,4.0,7.0,64,0.00,,,0.00,53,Wunderground v.1.15,2013-08-02 01:05:00,
2013-08-01 20:15:00,77.2,64.1,29.91,SSW,201,4.0,8.0,64,0.00,,,0.00,25,Wunderground v.1.15,2013-08-02 01:15:00,
2013-08-01 20:25:00,76.7,64.0,29.91,SW,222,6.0,8.0,65,0.00,,,0.00,12,Wunderground v.1.15,2013-08-02 01:25:00,
2013-08-01 20:35:00,75.9,64.2,29.91,WSW,238,6.0,10.0,67,0.00,,,0.00,5,Wunderground v.1.15,2013-08-02 01:35:00,
2013-08-01 20:45:00,75.1,63.8,29.91,SSW,210,4.0,10.0,68,0.00,,,0.00,0,Wunderground v.1.15,2013-08-02 01:45:00,
2013-08-01 20:55:00,74.6,64.2,29.92,SSW,206,4.0,6.0,70,0.00,,,0.00,0,Wunderground v.1.15,2013-08-02 01:55:00,
2013-08-01 21:05:00,74.0,64.0,29.92,WSW,251,4.0,6.0,71,0.00,,,0.00,0,Wunderground v.1.15,2013-08-02 02:05:00,
2013-08-01 21:15:00,73.8,64.2,29.93,SW,228,4.0,7.0,72,0.00,,,0.00,0,Wunderground v.1.15,2013-08-02 02:15:00,
2013-08-01 21:25:00,73.2,64.4,29.93,West,277,2.0,5.0,74,0.00,,,0.00,0,Wunderground v.1.15,2013-08-02 02:25:00,
2013-08-01 21:35:00,72.6,64.6,29.94,WNW,296,2.0,5.0,76,0.00,,,0.00,0,Wunderground v.1.15,2013-08-02 02:35:00,
2013-08-01 21:40:00,72.4,64.4,29.93,WNW,296,1.0,1.0,76,0.00,,,0.00,0,Wunderground v.1.15,2013-08-02 02:40:00,
2013-08-01 21:50:00,72.7,64.7,29.93,South,178,0.0,5.0,76,0.00,,,0.00,0,Wunderground v.1.15,2013-08-02 02:50:00,
2013-08-01 21:55:00,72.4,64.4,29.93,South,182,0.0,5.0,76,0.00,,,0.00,0,Wunderground v.1.15,2013-08-02 02:55:00,
2013-08-01 22:05:00,71.8,64.6,29.93,South,182,0.0,2.0,78,0.00,,,0.00,0,Wunderground v.1.15,2013-08-02 03:05:00,
2013-08-01 22:15:00,71.4,64.2,29.93,South,182,0.0,1.0,78,0.00,,,0.00,0,Wunderground v.1.15,2013-08-02 03:15:00,
2013-08-01 22:25:00,71.2,64.7,29.93,South,182,0.0,0.0,80,0.00,,,0.00,0,Wunderground v.1.15,2013-08-02 03:25:00,
2013-08-01 22:35:00,71.1,64.6,29.93,South,182,0.0,0.0,80,0.00,,,0.00,0,Wunderground v.1.15,2013-08-02 03:35:00,
2013-08-01 22:45:00,70.8,64.3,29.92,South,182,0.0,0.0,80,0.00,,,0.00,0,Wunderground v.1.15,2013-08-02 03:45:00,
2013-08-01 22:55:00,70.6,64.5,29.92,South,182,0.0,0.0,81,0.00,,,0.00,0,Wunderground v.1.15,2013-08-02 03:55:00,
2013-08-01 23:05:00,70.3,64.5,29.92,SE,134,1.0,2.0,82,0.00,,,0.00,0,Wunderground v.1.15,2013-08-02 04:05:00,
2013-08-01 23:09:00,70.2,64.4,29.92,SE,134,1.0,1.0,82,0.00,,,0.00,0,Wunderground v.1.15,2013-08-02 04:09:00,
2013-08-01 23:15:00,70.0,64.2,29.92,SE,133,0.0,3.0,82,0.00,,,0.00,0,Wunderground v.1.15,2013-08-02 04:15:00,
2013-08-01 23:20:00,70.0,64.2,29.92,SE,133,0.0,3.0,82,0.00,,,0.00,0,Wunderground v.1.15,2013-08-02 04:20:00,
2013-08-01 23:25:00,70.2,64.4,29.92,SE,133,0.0,3.0,82,0.00,,,0.00,0,Wunderground v.1.15,2013-08-02 04:25:00,
2013-08-01 23:29:00,69.8,64.1,29.92,SE,133,0.0,1.0,82,0.00,,,0.00,0,Wunderground v.1.15,2013-08-02 04:29:00,
2013-08-01 23:35:00,69.4,64.0,29.92,SE,133,0.0,1.0,83,0.00,,,0.00,0,Wunderground v.1.15,2013-08-02 04:35:00,
2013-08-01 23:45:00,68.9,63.9,29.92,SE,133,0.0,0.0,84,0.00,,,0.00,0,Wunderground v.1.15,2013-08-02 04:45:00,
2013-08-01 23:55:00,68.4,63.7,29.91,SE,133,0.0,0.0,85,0.00,,,0.00,0,Wunderground v.1.15,2013-08-02 04:55:00,